Voltar ao catálogo

SL-12 DEB

AtivoHEO
NORAD 25805·DEBRIS·🇷🇺 Russia

Lançado Sep 16, 1987 de Baikonur Cosmodrome

Loading…

Próximas Passagens (próximas 24 horas)

TLE

AtualizadoSource: Space-Track

Época: Sep 9, 2026, 14:41 UTC

1 25805U 87079Q   26252.61245443  .00010870  00000-0  63751-2 0  9997
2 25805  64.8413 272.2073 5263760  33.1521 350.9647  5.08468033 57592

Acompanhe SL-12 DEB em tempo real com AllMySat

Download on the App Store